KC9VAF Weather Reports


Display with metric or nautical units.
time (UTC)temp
F
wind
direction
speed
MPH
gust
MPH
rain 1hr
in
rain 24hr
in
rain mn
in
humidity
%
barometer
mb
20260903141125 75 33 4.0 6.0 0.00 0.00 0.00 74 1016.3
20260903140622 76 345 6.0 9.0 0.00 0.00 0.00 73 1016.1
20260903140117 74 52 3.0 3.0 0.00 0.00 0.00 78 1015.8
20260903135613 75 33 7.0 13.0 0.00 0.00 0.00 79 1015.9
20260903135112 74 17 4.0 6.0 0.00 0.00 0.00 83 1016.0
20260903134611 75 3 7.0 10.0 0.00 0.00 0.00 83 1016.0
20260903134107 75 76 5.0 8.0 0.00 0.00 0.00 83 1016.3
20260903133605 76 50 3.0 6.0 0.00 0.00 0.00 83 1016.3
20260903133101 76 15 3.0 3.0 0.00 0.00 0.00 84 1016.0
20260903132556 76 40 4.0 7.0 0.00 0.00 0.00 88 1016.0
20260903132050 77 287 4.0 6.0 0.00 0.00 0.00 91 1015.7
20260903131550 77 26 1.0 1.0 0.00 0.00 0.00 91 1014.7
20260903131044 77 77 0.0 0.0 0.00 0.00 0.00 91 1014.2
20260903130544 77 135 0.0 0.0 0.00 0.00 0.00 91 1014.3
20260903130039 77 80 0.0 0.0 0.00 0.00 0.00 91 1014.3
20260903125537 76 143 1.0 1.0 0.00 0.00 0.00 92 1014.2
20260903125033 76 91 0.0 1.0 0.00 0.00 0.00 94 1014.1
20260903124532 75 73 0.0 0.0 0.00 0.00 0.00 95 1014.1
20260903124027 75 83 0.0 0.0 0.00 0.00 0.00 96 1014.0
20260903123521 74 78 0.0 0.0 0.00 0.00 0.00 97 1013.9
20260903123020 74 91 0.0 1.0 0.00 0.00 0.00 97 1014.0
20260903122520 74 102 0.0 0.0 0.00 0.00 0.00 98 1014.1
20260903122019 74 92 0.0 0.0 0.00 0.00 0.00 98 1014.1
20260903121514 73 88 0.0 0.0 0.00 0.00 0.00 98 1014.2
20260903121010 73 90 0.0 0.0 0.00 0.00 0.00 98 1014.2
20260903120508 73 85 0.0 0.0 0.00 0.00 0.00 98 1014.2
20260903120003 73 102 0.0 0.0 0.00 0.00 0.00 98 1014.4
20260903115501 72 92 0.0 0.0 0.00 0.00 0.00 98 1014.3
20260903114956 72 91 0.0 0.0 0.00 0.00 0.00 98 1014.2
20260903114452 72 86 0.0 0.0 0.00 0.00 0.00 98 1014.2
20260903113947 72 85 0.0 0.0 0.00 0.00 0.00 98 1014.3
20260903113442 72 81 0.0 0.0 0.00 0.00 0.00 98 1014.4
20260903112938 72 81 0.0 0.0 0.00 0.00 0.00 98 1014.4
20260903112434 71 81 0.0 0.0 0.00 0.00 0.00 98 1014.4
20260903111933 72 82 0.0 0.0 0.00 0.00 0.00 98 1014.3
20260903111427 71 83 0.0 0.0 0.00 0.00 0.00 98 1014.4
20260903110924 71 83 0.0 0.0 0.00 0.00 0.00 98 1014.3
20260903110419 71 80 0.0 0.0 0.00 0.00 0.00 98 1014.6
20260903105914 71 77 0.0 0.0 0.00 0.00 0.00 98 1014.1
20260903105409 71 82 0.0 0.0 0.00 0.00 0.00 98 1014.4
20260903104909 71 81 0.0 0.0 0.00 0.00 0.00 98 1014.2
20260903104403 71 79 0.0 0.0 0.00 0.00 0.00 98 1014.2
20260903103900 71 82 0.0 0.0 0.00 0.00 0.00 98 1014.1
20260903103356 72 82 0.0 0.0 0.00 0.00 0.00 98 1014.1
20260903102850 72 82 0.0 0.0 0.00 0.00 0.00 98 1014.4
20260903102344 72 82 0.0 0.0 0.00 0.00 0.00 97 1014.3
20260903101839 72 87 0.0 0.0 0.00 0.00 0.00 97 1014.4
20260903101334 72 77 0.0 0.0 0.00 0.00 0.00 97 1014.3
20260903100830 72 78 0.0 0.0 0.00 0.00 0.00 97 1014.1
20260903100330 72 76 0.0 0.0 0.00 0.00 0.00 97 1014.1
20260903095826 72 80 0.0 0.0 0.00 0.00 0.00 97 1014.4
20260903095321 72 82 0.0 0.0 0.00 0.00 0.00 97 1014.3
20260903094816 72 81 0.0 0.0 0.00 0.00 0.00 97 1014.3
20260903094311 72 77 0.0 0.0 0.00 0.00 0.00 97 1014.6
20260903093807 73 79 0.0 0.0 0.00 0.00 0.00 97 1014.7
20260903093302 73 77 0.0 0.0 0.00 0.00 0.00 97 1014.2
20260903092802 73 76 0.0 0.0 0.00 0.00 0.00 97 1014.3
20260903092257 73 75 0.0 0.0 0.00 0.00 0.00 97 1014.3
20260903091755 73 80 0.0 0.0 0.00 0.00 0.00 97 1014.4
20260903091244 73 81 0.0 0.0 0.00 0.00 0.00 97 1014.6
20260903090740 73 81 0.0 0.0 0.00 0.00 0.00 97 1014.4
20260903090239 73 76 0.0 0.0 0.00 0.00 0.00 97 1014.4
20260903085738 73 75 0.0 0.0 0.00 0.00 0.00 97 1014.2
20260903085233 73 77 0.0 0.0 0.00 0.00 0.00 97 1014.3
20260903084730 73 75 0.0 0.0 0.00 0.00 0.00 96 1014.6
20260903084226 73 80 0.0 0.0 0.00 0.00 0.00 96 1014.3
20260903083721 73 81 0.0 0.0 0.00 0.00 0.00 96 1014.4
20260903083221 73 70 0.0 0.0 0.00 0.00 0.00 96 1014.5
20260903082715 73 76 0.0 0.0 0.00 0.00 0.00 96 1014.4
20260903082211 73 74 0.0 0.0 0.00 0.00 0.00 96 1014.3
20260903081710 73 83 0.0 0.0 0.00 0.00 0.00 96 1014.2
20260903081207 73 75 0.0 0.0 0.00 0.00 0.00 96 1014.4
20260903080703 73 75 0.0 0.0 0.00 0.00 0.00 96 1014.3
20260903080200 73 78 0.0 0.0 0.00 0.00 0.00 96 1014.0
20260903075659 73 78 0.0 0.0 0.00 0.00 0.00 96 1014.1
20260903075154 73 80 0.0 0.0 0.00 0.00 0.00 96 1014.2
20260903074653 74 82 0.0 0.0 0.00 0.00 0.00 96 1014.3
20260903074149 74 82 0.0 0.0 0.00 0.00 0.00 95 1014.3
20260903073644 74 85 0.0 0.0 0.00 0.00 0.00 95 1014.4
20260903073139 74 84 0.0 0.0 0.00 0.00 0.00 95 1014.2
20260903072635 74 86 1.0 1.0 0.00 0.00 0.00 96 1014.3
20260903072131 74 73 1.0 1.0 0.00 0.00 0.00 96 1014.7
20260903071628 75 62 2.0 2.0 0.00 0.00 0.00 96 1014.5
20260903071123 75 70 1.0 2.0 0.00 0.00 0.00 97 1014.6
20260903070623 75 68 0.0 0.0 0.00 0.00 0.00 97 1014.3
20260903070119 75 100 0.0 0.0 0.00 0.00 0.00 97 1014.3
20260903065618 75 76 0.0 0.0 0.00 0.00 0.00 97 1014.0
20260903065118 75 75 0.0 0.0 0.00 0.00 0.00 97 1014.2
20260903064612 75 74 0.0 0.0 0.00 0.00 0.00 97 1014.3
20260903064108 75 72 0.0 0.0 0.00 0.00 0.00 97 1014.4
20260903063603 75 68 0.0 0.0 0.00 0.00 0.00 97 1014.4
20260903063058 75 76 0.0 0.0 0.00 0.00 0.00 97 1014.4
20260903062553 75 76 0.0 0.0 0.00 0.00 0.00 97 1014.5
20260903062049 75 74 0.0 0.0 0.00 0.00 0.00 97 1014.5
20260903061544 75 74 0.0 0.0 0.00 0.00 0.00 97 1014.4
20260903061038 75 76 0.0 0.0 0.00 0.00 0.00 97 1014.6
20260903060538 75 76 0.0 0.0 0.00 0.00 0.00 97 1014.5
20260903060033 75 76 0.0 0.0 0.00 0.00 0.00 97 1014.6
20260903055530 75 76 0.0 0.0 0.00 0.00 0.00 97 1014.8
20260903055029 75 76 0.0 0.0 0.00 0.00 0.00 97 1014.7
20260903054524 75 76 0.0 0.0 0.00 0.00 0.00 97 1014.4
20260903054021 76 76 0.0 0.0 0.00 0.00 0.00 97 1014.5
20260903053520 75 76 0.0 0.0 0.00 0.00 0.00 97 1014.8
20260903053017 76 76 0.0 0.0 0.00 0.00 0.00 96 1014.6
20260903052512 76 76 0.0 0.0 0.00 0.00 0.00 96 1014.6
20260903052008 76 77 0.0 0.0 0.00 0.00 0.00 96 1014.7
20260903051502 76 77 0.0 0.0 0.00 0.00 0.00 96 1014.7
20260903050958 76 77 0.0 0.0 0.00 0.00 0.00 96 1014.7
20260903050456 76 78 0.0 0.0 0.00 0.00 0.00 96 1014.6
20260903045951 76 76 0.0 0.0 0.00 0.00 0.00 96 1014.4
20260903045447 76 75 0.0 0.0 0.00 0.00 0.00 96 1014.3
20260903044943 76 76 0.0 0.0 0.00 0.00 0.00 96 1014.3
20260903044439 76 76 0.0 0.0 0.00 0.00 0.00 96 1014.3
20260903043935 76 81 0.0 0.0 0.00 0.00 0.00 96 1014.2
20260903043431 76 81 0.0 0.0 0.00 0.00 0.00 96 1014.2
20260903042929 77 82 0.0 0.0 0.00 0.00 0.00 96 1014.2
20260903042424 77 77 0.0 0.0 0.00 0.00 0.00 95 1014.3
20260903041920 77 76 0.0 0.0 0.00 0.00 0.00 95 1014.2
20260903041416 77 76 0.0 0.0 0.00 0.00 0.00 95 1014.2
20260903040912 77 76 0.0 0.0 0.00 0.00 0.00 95 1014.0
20260903040411 77 76 0.0 0.0 0.00 0.00 0.00 95 1014.1
20260903035907 77 76 0.0 0.0 0.00 0.00 0.00 95 1014.3
20260903035403 77 76 0.0 0.0 0.00 0.00 0.00 94 1014.0
20260903034857 77 76 0.0 0.0 0.00 0.00 0.00 94 1014.1
20260903034352 77 76 0.0 0.0 0.00 0.00 0.00 94 1014.2
20260903033848 77 76 0.0 0.0 0.00 0.00 0.00 94 1014.2
20260903033343 77 76 0.0 0.0 0.00 0.00 0.00 94 1014.2
20260903032842 77 79 0.0 0.0 0.00 0.00 0.00 94 1014.1
20260903032338 78 79 0.0 0.0 0.00 0.00 0.00 94 1014.1
20260903031828 78 76 0.0 0.0 0.00 0.00 0.00 94 1014.3
20260903031327 77 76 0.0 0.0 0.00 0.00 0.00 94 1014.4
20260903030823 77 76 0.0 0.0 0.00 0.00 0.00 93 1014.2
20260903030319 77 76 0.0 0.0 0.00 0.00 0.00 93 1014.2
20260903025815 78 76 0.0 0.0 0.00 0.00 0.00 93 1013.9
20260903025310 77 76 0.0 0.0 0.00 0.00 0.00 92 1014.4
20260903024804 78 76 0.0 0.0 0.00 0.00 0.00 92 1014.4
20260903024304 78 76 0.0 0.0 0.00 0.00 0.00 92 1014.2
20260903023759 78 76 0.0 0.0 0.00 0.00 0.00 92 1014.2
20260903023254 78 76 0.0 0.0 0.00 0.00 0.00 92 1014.0
20260903022749 78 83 0.0 0.0 0.00 0.00 0.00 92 1014.2
20260903022247 78 84 0.0 0.0 0.00 0.00 0.00 91 1014.1
20260903021742 78 87 0.0 0.0 0.00 0.00 0.00 91 1014.1
20260903021237 79 83 0.0 0.0 0.00 0.00 0.00 91 1014.2
20260903020737 79 84 0.0 0.0 0.00 0.00 0.00 91 1014.2
20260903020231 79 88 0.0 0.0 0.00 0.00 0.00 90 1013.9
20260903015727 79 82 0.0 0.0 0.00 0.00 0.00 90 1013.8
20260903015222 79 81 0.0 0.0 0.00 0.00 0.00 90 1014.0
20260903014718 79 81 0.0 0.0 0.00 0.00 0.00 90 1013.8
20260903014217 79 79 0.0 0.0 0.00 0.00 0.00 90 1014.1
20260903013712 79 76 0.0 0.0 0.00 0.00 0.00 90 1013.9
20260903013211 80 81 0.0 0.0 0.00 0.00 0.00 89 1013.8
20260903012709 80 77 0.0 0.0 0.00 0.00 0.00 89 1013.8
20260903012204 80 75 0.0 0.0 0.00 0.00 0.00 89 1013.5
20260903011658 80 76 0.0 0.0 0.00 0.00 0.00 89 1013.3
20260903011152 80 78 0.0 0.0 0.00 0.00 0.00 89 1013.4
20260903010647 80 77 0.0 0.0 0.00 0.00 0.00 88 1013.4
20260903010146 81 72 0.0 0.0 0.00 0.00 0.00 88 1013.3
20260903005641 81 74 0.0 0.0 0.00 0.00 0.00 88 1013.3
20260903005137 81 80 0.0 0.0 0.00 0.00 0.00 87 1013.3
20260903004632 81 81 0.0 0.0 0.00 0.00 0.00 86 1013.4
20260903004126 82 80 0.0 0.0 0.00 0.00 0.00 86 1013.2
20260903003622 82 80 0.0 0.0 0.00 0.00 0.00 85 1013.4
20260903003117 83 76 0.0 0.0 0.00 0.00 0.00 84 1013.2
20260903002612 84 74 0.0 0.0 0.00 0.00 0.00 83 1013.2
20260903002106 84 80 0.0 0.0 0.00 0.00 0.00 82 1013.4
20260903001601 84 88 0.0 0.0 0.00 0.00 0.00 81 1013.3
20260903001101 85 86 0.0 0.0 0.00 0.00 0.00 80 1013.2
20260903000557 85 94 0.0 0.0 0.00 0.00 0.00 79 1013.3
20260903000056 85 85 0.0 0.0 0.00 0.00 0.00 79 1013.5
20260902235555 86 78 0.0 0.0 0.00 0.00 0.00 78 1013.7
20260902235050 87 120 0.0 1.0 0.00 0.00 0.00 76 1013.5
20260902234545 88 75 0.0 0.0 0.00 0.00 0.00 75 1013.6
20260902234043 88 70 1.0 1.0 0.00 0.00 0.00 74 1013.3
20260902233538 88 84 1.0 1.0 0.00 0.00 0.00 74 1013.4
20260902233033 87 66 0.0 0.0 0.00 0.00 0.00 75 1013.5
20260902232532 86 70 0.0 0.0 0.00 0.00 0.00 77 1013.4
20260902232026 86 64 0.0 0.0 0.00 0.00 0.00 78 1013.5
20260902231521 86 70 0.0 0.0 0.00 0.00 0.00 77 1013.4
20260902231020 86 80 0.0 0.0 0.00 0.00 0.00 77 1013.4
20260902230515 86 99 0.0 1.0 0.00 0.00 0.00 76 1013.5
20260902230014 86 63 0.0 0.0 0.00 0.00 0.00 77 1013.4
20260902225510 86 106 0.0 1.0 0.00 0.00 0.00 75 1013.1
20260902225004 86 72 0.0 0.0 0.00 0.00 0.00 75 1013.5
20260902224502 86 62 0.0 1.0 0.00 0.00 0.00 76 1013.6
20260902223954 86 75 0.0 1.0 0.00 0.00 0.00 76 1013.5
20260902223449 87 70 0.0 0.0 0.00 0.00 0.00 75 1013.4
20260902222948 87 94 0.0 0.0 0.00 0.00 0.00 75 1013.8
20260902222446 87 73 0.0 1.0 0.00 0.00 0.00 75 1013.5
20260902221941 87 295 1.0 2.0 0.00 0.00 0.00 74 1013.7
20260902221439 87 278 4.0 5.0 0.00 0.00 0.00 75 1013.5
20260902220935 88 252 2.0 2.0 0.00 0.00 0.00 72 1013.6
20260902220430 88 53 0.0 1.0 0.00 0.00 0.00 71 1013.4
20260902215925 87 63 0.0 1.0 0.00 0.00 0.00 73 1013.7
20260902215420 88 45 1.0 1.0 0.00 0.00 0.00 72 1013.6
20260902214916 88 67 1.0 1.0 0.00 0.00 0.00 71 1013.5
20260902214415 88 110 1.0 1.0 0.00 0.00 0.00 72 1013.8
20260902213909 88 81 0.0 0.0 0.00 0.00 0.00 73 1013.6
20260902213406 88 174 1.0 2.0 0.00 0.00 0.00 70 1013.6
20260902212904 89 82 1.0 1.0 0.00 0.00 0.00 68 1013.5
20260902212400 89 230 1.0 1.0 0.00 0.00 0.00 67 1013.7
20260902211857 89 233 3.0 3.0 0.00 0.00 0.00 67 1013.6
20260902211352 90 101 0.0 1.0 0.00 0.00 0.00 68 1013.6
20260902210847 89 62 1.0 2.0 0.00 0.00 0.00 68 1013.7
20260902210346 88 167 1.0 1.0 0.00 0.00 0.00 68 1013.7
20260902205845 89 207 2.0 3.0 0.00 0.00 0.00 70 1013.6
20260902205339 89 17 1.0 1.0 0.00 0.00 0.00 70 1013.8
20260902204835 89 127 1.0 1.0 0.00 0.00 0.00 69 1013.8
20260902204329 90 53 3.0 5.0 0.00 0.00 0.00 68 1013.9
20260902203825 91 314 2.0 2.0 0.00 0.00 0.00 67 1013.7
20260902203320 90 154 3.0 5.0 0.00 0.00 0.00 68 1013.5
20260902202819 89 322 3.0 6.0 0.00 0.00 0.00 68 1013.5
20260902202316 89 43 3.0 3.0 0.00 0.00 0.00 67 1013.8
20260902201812 91 265 2.0 5.0 0.00 0.00 0.00 68 1013.5
20260902201307 91 94 1.0 1.0 0.00 0.00 0.00 67 1013.8
20260902200803 90 105 4.0 7.0 0.00 0.00 0.00 67 1013.6
20260902200257 89 200 2.0 3.0 0.00 0.00 0.00 70 1013.8
20260902195753 89 99 1.0 1.0 0.00 0.00 0.00 71 1013.8
20260902195252 89 37 2.0 2.0 0.00 0.00 0.00 69 1014.0
20260902194751 90 283 3.0 3.0 0.00 0.00 0.00 69 1014.0
20260902194246 89 128 1.0 2.0 0.00 0.00 0.00 70 1014.0
20260902193742 89 263 2.0 3.0 0.00 0.00 0.00 71 1013.6
20260902193238 89 220 2.0 2.0 0.00 0.00 0.00 71 1014.0
20260902192736 89 229 2.0 2.0 0.00 0.00 0.00 71 1013.9
20260902192235 89 129 2.0 3.0 0.00 0.00 0.00 68 1014.2
20260902191731 90 310 1.0 2.0 0.00 0.00 0.00 69 1014.3
20260902191231 90 63 0.0 1.0 0.00 0.00 0.00 70 1014.1
20260902190726 89 263 3.0 3.0 0.00 0.00 0.00 71 1014.1
20260902190220 89 87 0.0 1.0 0.00 0.00 0.00 72 1014.3
20260902185716 88 74 1.0 1.0 0.00 0.00 0.00 76 1014.2
20260902185212 88 164 2.0 2.0 0.00 0.00 0.00 73 1014.2
20260902184712 89 81 1.0 1.0 0.00 0.00 0.00 74 1014.4
20260902184208 87 340 1.0 1.0 0.00 0.00 0.00 77 1014.3
20260902183704 87 298 3.0 3.0 0.00 0.00 0.00 76 1014.5
20260902183200 87 7 1.0 1.0 0.00 0.00 0.00 74 1014.5
20260902182655 88 116 1.0 1.0 0.00 0.00 0.00 73 1014.4
20260902182152 87 93 1.0 1.0 0.00 0.00 0.00 76 1014.5
20260902181648 87 356 2.0 3.0 0.00 0.00 0.00 74 1014.6
20260902181147 88 74 1.0 1.0 0.00 0.00 0.00 72 1014.6
20260902180642 88 86 0.0 0.0 0.00 0.00 0.00 74 1014.5
20260902180138 87 84 1.0 2.0 0.00 0.00 0.00 75 1014.7
20260902175638 86 84 0.0 1.0 0.00 0.00 0.00 75 1015.0
20260902175134 87 187 2.0 3.0 0.00 0.00 0.00 72 1014.6
20260902174630 86 108 2.0 3.0 0.00 0.00 0.00 74 1014.7
20260902174125 86 302 3.0 3.0 0.00 0.00 0.00 73 1015.0
20260902173620 86 97 0.0 1.0 0.00 0.00 0.00 75 1014.9
20260902173116 86 328 2.0 2.0 0.00 0.00 0.00 73 1015.1
20260902172615 85 65 0.0 0.0 0.00 0.00 0.00 74 1015.0
20260902172109 86 132 1.0 1.0 0.00 0.00 0.00 72 1015.1
20260902171605 85 143 1.0 2.0 0.00 0.00 0.00 72 1015.2
20260902171100 85 304 3.0 3.0 0.00 0.00 0.00 73 1015.1
20260902170555 86 90 0.0 1.0 0.00 0.00 0.00 70 1014.9
20260902170051 85 86 1.0 1.0 0.00 0.00 0.00 72 1015.0
20260902165551 85 94 0.0 0.0 0.00 0.00 0.00 70 1015.2
20260902165046 85 25 1.0 1.0 0.00 0.00 0.00 71 1015.2
20260902164541 85 41 2.0 2.0 0.00 0.00 0.00 71 1015.1
20260902164040 84 139 1.0 2.0 0.00 0.00 0.00 73 1015.2
20260902163536 84 86 1.0 1.0 0.00 0.00 0.00 75 1015.4
20260902163033 83 109 1.0 1.0 0.00 0.00 0.00 74 1015.2
20260902162528 83 40 2.0 3.0 0.00 0.00 0.00 74 1015.1
20260902162023 84 82 3.0 6.0 0.00 0.00 0.00 72 1014.6
20260902161518 84 105 2.0 2.0 0.00 0.00 0.00 74 1014.6
20260902161014 84 120 3.0 3.0 0.00 0.00 0.00 73 1014.6
20260902160510 83 96 1.0 1.0 0.00 0.00 0.00 74 1014.9
20260902160010 83 101 1.0 1.0 0.00 0.00 0.00 75 1015.1
20260902155503 83 100 2.0 2.0 0.00 0.00 0.00 73 1014.9
20260902155002 83 73 0.0 0.0 0.00 0.00 0.00 74 1015.1
20260902154457 82 124 2.0 2.0 0.00 0.00 0.00 73 1015.3
20260902153952 82 69 2.0 2.0 0.00 0.00 0.00 74 1015.2
20260902153450 81 81 2.0 2.0 0.00 0.00 0.00 76 1015.4
20260902152946 80 79 1.0 2.0 0.00 0.00 0.00 75 1015.2
20260902152442 81 74 1.0 2.0 0.00 0.00 0.00 76 1015.4
20260902151937 81 73 1.0 1.0 0.00 0.00 0.00 75 1015.4
20260902151434 81 105 1.0 2.0 0.00 0.00 0.00 75 1015.4
20260902150932 81 52 1.0 1.0 0.00 0.00 0.00 75 1015.2
20260902150429 81 97 1.0 2.0 0.00 0.00 0.00 75 1015.3
20260902145928 80 111 1.0 1.0 0.00 0.00 0.00 76 1015.7
20260902145424 79 125 2.0 5.0 0.00 0.00 0.00 77 1015.3
20260902144918 79 140 1.0 2.0 0.00 0.00 0.00 79 1015.4
20260902144415 77 83 1.0 1.0 0.00 0.00 0.00 82 1015.6
20260902143914 77 80 1.0 2.0 0.00 0.00 0.00 82 1015.4
20260902143409 76 74 0.0 1.0 0.00 0.00 0.00 82 1015.8
20260902142905 76 78 1.0 1.0 0.00 0.00 0.00 82 1015.8
20260902142401 77 102 0.0 1.0 0.00 0.00 0.00 81 1015.7
20260902141856 76 73 0.0 0.0 0.00 0.00 0.00 83 1015.8